User: anonymous   Login
Location: Mount Graham
(32.7016°N, 109.8912°W)
Time: 20:43:04
(UTC-07:00)
Language:

Cosmos 1340 - Orbit

View from above orbital plane
View from above orbital plane
View from above satellite
View from above satellite

Ground track
Ground track

The orbit data is extracted from the following two-line orbital elements,

1 13067U 82013A   16240.76206949  .00000971  00000-0  45635-4 0  9991
2 13067  81.1868 116.2797 0004554  80.4536 322.4914 15.18662279883278
Epoch (UTC): 27 August 2016 18:17:22
Eccentricity: 0.0004554
inclination: 81.1868°
perigee height: 507 km
apogee height: 513 km
right ascension of ascending node: 116.2797°
argument of perigee: 80.4536°
revolutions per day: 15.18662279
mean anomaly at epoch: 322.4914°
orbit number at epoch: 88327

The dashed part of the orbit path shows where the satellite is in the earth's shadow,  

DLR